Quebec, Quebec

5:39 PM EST on January 19, 2018 (GMT -0500)
Quebec

Weather History for CYQB - January, 2013

Change the Weather History Date:

Wednesday, January 9, 2013

  Actual Average Record
Temperature  
Mean Temperature 30 °F -  
Max Temperature 34 °F 19 °F 42 °F (2008)
Min Temperature 26 °F 2 °F -20 °F (2004)
Degree Days  
Heating Degree Days 35    
Moisture  
Dew Point 28 °F    
Average Humidity 85    
Maximum Humidity 99    
Minimum Humidity 73    
Precipitation  
Precipitation 0.12 in 0.11 in - ()
Sea Level Pressure  
Sea Level Pressure 30.08 in    
Wind  
Wind Speed 6 mph ()    
Max Wind Speed 21 mph    
Max Gust Speed -    
Visibility 4.0 miles    
Events Snow    
Averages and records for this station are not official NWS values.
T = Trace of Precipitation, MM = Missing Value Source: Averaged Metar Reports

Daily Weather History Graph

Daily Weather History Graph

Search for Another Location

Airport or City:

Trip Planner

Search our weather history database for the weather conditions in past years. The results will help you decide how hot, cold, wet, or windy it might be!

Date:

Astronomy

Jan. 09, 2013 Rise Set
Actual Time 7:29 AM EST 4:16 PM EST
Civil Twilight 6:54 AM EST 4:51 PM EST
Nautical Twilight 6:16 AM EST 5:29 PM EST
Astronomical Twilight 5:39 AM EST 6:06 PM EST
Moon 5:05 AM EST (1/9) 2:14 PM EST (1/9)
Length of Visible Light 9h 56m
Length of Day
8h 47m
Waning Crescent, 6% of the Moon is Illuminated
Jan 9
Waning Crescent
Jan 11
New
Jan 18
First Quarter
Jan 26
Full
Feb 3
Last Quarter

Hourly Weather History & Observations

Time (EST) Temp. Windchill Dew Point Humidity Pressure Visibility Wind Dir Wind Speed Gust Speed Precip Events Conditions
12:00 AM 32.0 °F 24.8 °F 26.6 °F 80% 30.31 in 8.0 mi SW 8.1 mph - N/A   Overcast
1:00 AM 30.2 °F 21.9 °F 26.6 °F 86% 30.31 in 8.0 mi WSW 9.2 mph - N/A   Overcast
2:00 AM 30.2 °F 20.2 °F 26.6 °F 86% 30.34 in 6.0 mi SW 12.7 mph - N/A   Overcast
3:00 AM 30.2 °F 20.8 °F 26.6 °F 86% 30.33 in 5.0 mi WSW 11.5 mph - N/A   Overcast
4:00 AM 29 °F - 27 °F 90% 30.31 in - WSW 4.6 mph - -  
4:00 AM 28.4 °F 19.7 °F 24.8 °F 86% 30.32 in 5.0 mi SW 9.2 mph - N/A   Overcast
5:00 AM 28.4 °F 22.2 °F 24.8 °F 86% 30.31 in 5.0 mi WSW 5.8 mph - N/A   Overcast
6:00 AM 26.6 °F 21.2 °F 23.0 °F 86% 30.31 in 5.0 mi West 4.6 mph - N/A   Overcast
7:00 AM 28 °F - 26 °F 91% 30.31 in - WSW 1.2 mph - -  
7:00 AM 28.4 °F - 24.8 °F 86% 30.31 in 5.0 mi Calm Calm - N/A   Mostly Cloudy
8:00 AM 26.6 °F - 23.0 °F 86% 30.29 in 3.0 mi Calm Calm - N/A   Mostly Cloudy
9:00 AM 28.4 °F 24.6 °F 24.8 °F 86% 30.27 in 2.5 mi East 3.5 mph - N/A   Mostly Cloudy
10:00 AM 30 °F - 28 °F 86% 30.23 in - East 3.5 mph - -  
10:00 AM 30.2 °F 24.3 °F 26.6 °F 86% 30.24 in 2.0 mi ENE 5.8 mph - N/A   Mostly Cloudy
11:00 AM 32.0 °F - 26.6 °F 80% 30.17 in 3.0 mi NE 2.3 mph - N/A   Mostly Cloudy
12:00 PM 32.0 °F 26.4 °F 26.6 °F 80% 30.09 in 3.0 mi ENE 5.8 mph - N/A   Haze
1:00 PM 33 °F - 28 °F 73% 30.03 in - ENE 3.5 mph - -  
1:00 PM 32.0 °F 26.4 °F 26.6 °F 80% 30.04 in 6.0 mi NE 5.8 mph - N/A   Haze
2:00 PM 33.8 °F 29.6 °F 26.6 °F 75% 30.01 in 8.0 mi North 4.6 mph - N/A   Mostly Cloudy
3:00 PM 33.8 °F 28.6 °F 26.6 °F 75% 29.94 in 8.0 mi ENE 5.8 mph - N/A   Overcast
3:35 PM 33.8 °F 29.6 °F 26.6 °F 75% - 8.0 mi ENE 4.6 mph - N/A   Overcast
4:00 PM 33 °F - 28 °F 73% 29.90 in - SE 1.2 mph - -  
4:00 PM 32.0 °F - 26.6 °F 80% 29.91 in 2.5 mi Calm Calm - N/A Snow Light Snow
4:22 PM 32.0 °F 27.5 °F - N/A% - 1.5 mi South 4.6 mph - N/A Snow Light Snow
4:38 PM 32.0 °F - - N/A% - 2.5 mi Calm Calm - N/A Snow Light Snow
5:00 PM 32.0 °F - 30.2 °F 93% 29.84 in 2.0 mi East 2.3 mph - N/A Snow Light Snow
5:22 PM 32.0 °F - 30.2 °F 93% - 1.0 mi ENE 2.3 mph - N/A Snow Light Snow
5:46 PM 32.0 °F - 30.2 °F 93% - 0.8 mi NE 2.3 mph - N/A Snow Light Snow
6:00 PM 32.0 °F 27.5 °F 30.2 °F 93% 29.80 in 0.8 mi ENE 4.6 mph - N/A Snow Light Snow
6:35 PM 32.0 °F - - N/A% - 0.5 mi Calm Calm - N/A Snow Snow
7:00 PM 32 °F - 32 °F 99% 29.76 in - East 2.3 mph - -  
7:47 PM 33.8 °F 27.7 °F 30.2 °F 87% - 1.5 mi WSW 6.9 mph - N/A Snow Light Snow
8:00 PM 33.8 °F 25.8 °F 30.2 °F 87% 29.74 in 4.0 mi West 10.4 mph - N/A Snow Light Snow
9:00 PM 33.8 °F 23.9 °F 32.0 °F 93% 29.74 in 5.0 mi WSW 15.0 mph - N/A Snow Light Snow
10:00 PM 34 °F - 32 °F 91% 29.74 in - WSW 12.7 mph - -  
10:00 PM 33.8 °F 22.8 °F 30.2 °F 87% 29.74 in 4.0 mi WSW 18.4 mph - N/A Snow Light Snow
11:00 PM 33.8 °F 22.2 °F 30.2 °F 87% 29.76 in 2.0 mi WSW 20.7 mph - N/A Snow Light Snow